DateTimeUTC,F1_A11,F1_S11,BsB_S11,BsG_S11,BsR_S11,BbsB_S11,BbsG_S11,BbsR_S11,BaB_A11,BaG_A11,BaR_A11,Tu_S11,T_S11,Uu_S11,U_S11,P_S11,T1_A11
2021-06-06T20:00:00Z,00000200,20000000,,,,,,,-000.25,-000.22,-000.19,19.4,25.9,09.1,06.1,0672.9,31.1
2021-06-06T20:01:00Z,00000200,20000000,,,,,,,0000.08,0000.22,0000.39,19.4,25.9,08.8,05.9,0672.9,31.1
2021-06-06T20:02:00Z,00000200,20000000,,,,,,,0000.15,0000.13,-000.08,19.4,25.9,08.8,05.9,0672.9,31.1
2021-06-06T20:03:00Z,00000200,60000000,,,,,,,-000.23,-000.44,-000.32,19.4,25.9,08.8,05.9,0672.9,31.1
2021-06-06T20:04:00Z,00000200,40000000,0002.53,0001.31,0000.90,-000.13,0000.33,-000.14,0000.52,0000.73,0000.71,19.4,25.7,08.6,05.9,0673.8,31.1
2021-06-06T20:05:00Z,00000200,00000000,0002.60,0001.67,0000.88,0000.29,0000.24,-000.02,0000.05,-000.05,0000.02,19.5,25.7,08.6,05.9,0673.9,31.1
2021-06-06T20:06:00Z,00000200,00000000,0002.33,0001.60,0000.82,0000.69,0000.25,-000.01,0000.58,0000.63,0000.51,19.5,25.6,08.7,05.9,0673.9,31.1
2021-06-06T20:07:00Z,00000200,00010000,0002.47,0001.74,0000.75,0000.79,0000.27,-000.15,0000.48,0000.59,0000.44,19.5,25.6,08.6,05.9,0673.9,31.1
2021-06-06T20:08:00Z,00000200,00000000,0002.71,0001.77,0001.22,0000.98,0000.21,0000.32,0000.30,0000.17,0000.14,19.5,25.6,08.6,05.9,0673.9,31.1
2021-06-06T20:09:00Z,00000200,00000000,0002.99,0001.78,0000.86,0000.53,0000.36,0000.11,0000.63,0000.60,0000.85,19.5,25.6,08.7,06.0,0673.9,31.1
2021-06-06T20:10:00Z,00000200,00000000,0002.64,0001.71,0000.59,0000.83,0000.23,-000.09,0000.57,0000.46,-000.24,19.5,25.6,08.6,05.9,0673.9,31.1
2021-06-06T20:11:00Z,00000200,00000000,0003.01,0001.65,0001.08,0000.84,0000.38,0000.00,-000.01,0000.05,0000.54,19.4,25.6,08.6,05.9,0673.9,31.1
2021-06-06T20:12:00Z,00000200,00000000,0002.42,0001.59,0000.97,0000.55,0000.32,0000.32,0000.41,0000.49,0000.40,19.5,25.6,08.6,05.9,0673.9,31.1
2021-06-06T20:13:00Z,00000200,00000000,0002.63,0002.12,0001.01,0000.76,0000.23,0000.35,0000.65,0000.50,0000.03,19.5,25.6,08.5,05.9,0673.9,31.1
2021-06-06T20:14:00Z,00000200,00000000,0002.37,0002.03,0000.67,0000.34,0000.14,0000.17,-000.06,-000.12,0000.30,19.5,25.6,08.5,05.9,0673.9,31.1
2021-06-06T20:15:00Z,00000200,00000000,0002.09,0001.50,0000.96,0001.05,0000.47,0000.14,0000.61,0000.39,0000.38,19.4,25.6,08.4,05.8,0673.9,31.2
2021-06-06T20:16:00Z,00000200,00000000,0002.29,0001.68,0000.74,0000.58,0000.31,0000.09,0000.24,0000.35,-000.02,19.5,25.6,08.3,05.8,0673.9,31.1
2021-06-06T20:17:00Z,00000200,00000000,0002.57,0001.84,0000.91,0000.55,0000.03,0000.13,-000.01,0000.51,0000.58,19.4,25.6,08.3,05.8,0673.9,31.1
2021-06-06T20:18:00Z,00000200,00000000,0002.81,0001.73,0000.88,0000.89,0000.15,0000.20,0000.69,0000.22,0000.34,19.4,25.6,08.2,05.7,0673.9,31.1
2021-06-06T20:19:00Z,00000200,00000000,0003.84,0001.78,0000.81,0000.59,0000.35,-000.13,0000.45,0000.08,-000.03,19.4,25.6,08.3,05.7,0673.9,31.1
2021-06-06T20:20:00Z,00000200,00000000,0002.67,0001.74,0000.85,0000.03,0000.22,-000.02,-000.13,0000.59,0000.35,19.4,25.6,08.3,05.7,0673.9,31.1
2021-06-06T20:21:00Z,00000200,00000000,0002.47,0001.48,0000.81,0000.18,0000.27,0000.08,0000.38,0000.20,0000.40,19.4,25.6,08.2,05.7,0673.9,31.1
2021-06-06T20:22:00Z,00000200,00000000,0002.18,0001.76,0001.10,0000.48,0000.31,-000.08,0000.59,0000.46,0000.03,19.4,25.6,08.3,05.7,0673.9,31.1
2021-06-06T20:23:00Z,00000200,00000000,0002.39,0001.71,0000.78,0000.65,0000.14,0000.03,0000.22,0000.21,0000.30,19.4,25.6,08.2,05.7,0673.9,31.1
2021-06-06T20:24:00Z,00000200,00000000,0002.77,0001.60,0000.92,0000.46,0000.01,0000.08,0000.30,0000.29,0000.54,19.4,25.6,08.1,05.6,0673.9,31.1
2021-06-06T20:25:00Z,00000200,00000000,0002.06,0001.94,0000.83,0000.65,0000.27,-000.27,0000.44,0000.07,0000.19,19.4,25.6,08.0,05.5,0673.9,31.1
2021-06-06T20:26:00Z,00000200,00000000,0002.22,0001.80,0000.92,0000.88,0000.17,0000.24,0000.10,0000.16,-000.12,19.4,25.5,08.0,05.5,0673.9,31.1
2021-06-06T20:27:00Z,00000200,00000000,0002.22,0001.64,0001.00,0000.10,0000.25,-000.06,0000.51,0000.42,0000.58,19.4,25.5,08.0,05.5,0673.9,31.1
2021-06-06T20:28:00Z,00000200,00000000,0002.04,0001.45,0000.80,0000.12,0000.19,-000.02,-000.01,0000.41,0000.10,19.4,25.5,07.8,05.4,0673.9,31.1
2021-06-06T20:29:00Z,00000200,00000000,0002.55,0001.86,0001.07,0000.39,0000.34,0000.11,0000.31,0000.08,0000.23,19.4,25.5,07.9,05.4,0673.9,31.1
2021-06-06T20:30:00Z,00000200,00000000,0001.89,0001.73,0001.07,0000.59,0000.38,0000.21,0000.48,0000.55,0000.53,19.3,25.5,07.7,05.3,0673.9,31.1
2021-06-06T20:31:00Z,00000200,00000000,0002.39,0001.58,0000.83,0000.29,0000.20,0000.06,0000.16,0000.19,0000.18,19.3,25.5,07.7,05.3,0673.9,31.1
2021-06-06T20:32:00Z,00000200,00000000,0001.62,0001.73,0000.63,0000.21,0000.25,0000.06,0000.15,0000.16,0000.15,19.3,25.5,07.6,05.2,0673.9,31.1
2021-06-06T20:33:00Z,00000200,00000000,0002.44,0001.61,0001.09,0000.54,0000.23,0000.00,0000.77,0000.25,0000.25,19.3,25.5,07.5,05.2,0673.8,31.1
2021-06-06T20:34:00Z,00000200,00000000,0003.05,0001.74,0000.79,-000.00,0000.50,0000.20,0000.31,0000.51,0000.22,19.3,25.5,07.6,05.3,0673.8,31.1
2021-06-06T20:35:00Z,00000200,00000000,0002.04,0001.88,0000.81,0000.51,0000.11,0000.02,0000.31,0000.87,0000.51,19.3,25.5,07.7,05.3,0673.8,31.1
2021-06-06T20:36:00Z,00000200,00000000,0002.29,0001.77,0000.68,0000.56,0000.05,0000.19,0000.53,0000.15,0000.21,19.3,25.5,07.7,05.3,0673.8,31.1
2021-06-06T20:37:00Z,00000200,00000000,0002.68,0001.51,0000.94,0000.21,0000.30,-000.20,0000.62,0000.39,0000.69,19.3,25.5,07.8,05.3,0673.8,31.1
2021-06-06T20:38:00Z,00000200,00000000,0002.46,0001.66,0000.47,-000.20,0000.39,-000.12,0000.63,0000.63,0000.37,19.3,25.5,07.9,05.4,0673.8,31.1
2021-06-06T20:39:00Z,00000200,00000000,0002.39,0001.81,0000.90,0000.41,0000.14,0000.13,0000.78,0000.75,0000.38,19.3,25.5,08.1,05.6,0673.8,31.1
2021-06-06T20:40:00Z,00000200,00000000,0002.73,0001.51,0000.76,0000.52,0000.44,-000.29,0000.25,0000.30,0000.55,19.3,25.5,08.2,05.6,0673.8,31.1
2021-06-06T20:41:00Z,00000200,00000000,0002.31,0001.93,0000.86,0000.14,0000.28,0000.16,0000.73,0000.72,0000.40,19.3,25.5,08.5,05.9,0673.8,31.1
2021-06-06T20:42:00Z,00000200,00000000,0002.85,0001.86,0000.97,0000.53,0000.12,0000.12,0000.43,0000.28,0000.55,19.3,25.5,08.6,05.9,0673.8,31.1
2021-06-06T20:43:00Z,00000200,00000000,0002.85,0001.71,0001.13,0000.65,0000.35,0000.21,0000.60,0000.65,0000.08,19.4,25.5,08.4,05.8,0673.8,31.1
2021-06-06T20:44:00Z,00000200,00000000,0002.22,0002.01,0001.12,0000.62,0000.09,0000.01,0000.50,0000.40,0000.52,19.3,25.5,08.6,05.9,0673.8,31.1
2021-06-06T20:45:00Z,00000200,00000000,0002.44,0002.29,0001.08,0000.41,0000.21,-000.04,0000.20,0000.18,0000.14,19.4,25.5,08.5,05.9,0673.8,31.1
2021-06-06T20:46:00Z,00000200,00000000,0003.35,0001.61,0001.08,0000.24,0000.57,0000.52,0000.49,0000.31,0000.41,19.3,25.5,08.4,05.8,0673.8,31.1
2021-06-06T20:47:00Z,00000200,00000000,0003.16,0002.20,0000.88,0000.29,0000.29,0000.34,0000.62,0000.96,0000.85,19.3,25.5,08.6,05.9,0673.8,31.1
2021-06-06T20:48:00Z,00000200,00000000,0002.13,0001.94,0001.03,0000.73,0000.03,-000.07,0000.13,0000.13,-000.04,19.3,25.4,08.5,05.8,0673.8,31.1
2021-06-06T20:49:00Z,00000200,00000000,0002.95,0001.83,0000.96,0000.10,0000.13,0000.08,0000.70,0000.19,0000.34,19.3,25.4,08.5,05.9,0673.8,31.1
2021-06-06T20:50:00Z,00000200,00000000,0003.30,0001.92,0000.96,0000.53,0000.09,0000.19,0000.39,0000.27,0000.77,19.3,25.5,08.5,05.9,0673.8,31.1
2021-06-06T20:51:00Z,00000200,00000000,0002.75,0001.76,0000.92,0000.46,0000.19,0000.08,-000.01,0000.61,-000.51,19.3,25.4,08.5,05.8,0673.8,31.1
2021-06-06T20:52:00Z,00000200,00000000,0003.29,0001.86,0000.97,0000.35,0000.56,0000.14,0000.47,0000.21,0000.54,19.3,25.5,08.4,05.8,0673.8,31.1
2021-06-06T20:53:00Z,00000200,00000000,0002.66,0002.06,0000.77,-000.16,0000.31,-000.16,0000.32,0000.18,0000.28,19.3,25.4,08.4,05.8,0673.8,31.1
2021-06-06T20:54:00Z,00000200,00000000,0001.94,0001.94,0000.90,0000.94,0000.57,-000.06,0000.69,0000.80,0000.56,19.3,25.4,08.3,05.7,0673.8,31.1
2021-06-06T20:55:00Z,00000200,00000000,0003.12,0002.03,0001.03,0000.69,0000.30,0000.14,0000.28,0000.21,0000.35,19.3,25.4,08.3,05.7,0673.8,31.1
2021-06-06T20:56:00Z,00000200,00000000,0003.21,0002.00,0000.88,0000.25,0000.14,0000.09,0000.55,0000.65,0000.11,19.3,25.4,08.5,05.8,0673.8,31.1
2021-06-06T20:57:00Z,00000200,40000000,,,,,,,-000.19,-000.08,0000.40,19.3,25.5,09.2,06.3,0673.8,31.1
2021-06-06T20:58:00Z,00000200,60000000,,,,,,,0000.35,-000.01,-000.29,19.1,25.6,08.3,05.6,0672.8,31.1
2021-06-06T20:59:00Z,00000200,20000000,,,,,,,0000.14,0000.03,0000.38,19.1,25.7,08.2,05.5,0672.8,31.1
